KB1DML-3 Weather Reports


Display with metric or nautical units.
time (UTC)temp
F
wind
direction
speed
MPH
gust
MPH
rain 1hr
in
rain 24hr
in
rain mn
in
humidity
%
barometer
mb
20260507101024 0 338 11.0 13.0 0.00 0.00 0.00
20260507100543 0 338 12.0 14.0 0.00 0.00 0.00
20260507100023 0 338 12.0 14.0 0.00 0.00 0.00
20260507095521 0 338 14.0 18.0 0.00 0.00 0.00
20260507095041 0 338 13.0 17.0 0.00 0.00 0.00
20260507094528 0 338 13.0 17.0 0.00 0.00 0.00
20260507094120 0 338 14.0 19.0 0.00 0.00 0.00
20260507093521 0 338 13.0 18.0 0.00 0.00 0.00
20260507093021 0 338 12.0 16.0 0.00 0.00 0.00
20260507092521 0 338 10.0 15.0 0.00 0.00 0.00
20260507092021 0 315 12.0 17.0 0.00 0.00 0.00
20260507091541 0 315 11.0 17.0 0.00 0.00 0.00
20260507091022 0 315 11.0 15.0 0.00 0.00 0.00
20260507090521 0 315 10.0 16.0 0.00 0.00 0.00
20260507090021 0 315 10.0 15.0 0.00 0.00 0.00
20260507085521 0 315 9.0 13.0 0.00 0.00 0.00
20260507084521 0 315 10.0 17.0 0.00 0.00 0.00
20260507084023 0 315 12.0 18.0 0.00 0.00 0.00
20260507083522 0 315 10.0 15.0 0.00 0.00 0.00
20260507083022 0 315 12.0 18.0 0.00 0.00 0.00
20260507082545 0 315 15.0 22.0 0.00 0.00 0.00
20260507081526 0 315 14.0 21.0 0.00 0.00 0.00
20260507081041 0 315 13.0 20.0 0.00 0.00 0.00
20260507080529 0 315 13.0 21.0 0.00 0.00 0.00
20260507080023 0 315 14.0 21.0 0.00 0.00 0.00
20260507075530 0 315 14.0 19.0 0.00 0.00 0.00
20260507075021 0 315 14.0 19.0 0.00 0.00 0.00
20260507074528 0 315 14.0 20.0 0.00 0.00 0.00
20260507074027 0 315 12.0 18.0 0.00 0.00 0.00
20260507073542 0 315 11.0 18.0 0.00 0.00 0.00
20260507073041 0 315 10.0 14.0 0.00 0.00 0.00
20260507072521 0 315 8.0 14.0 0.00 0.00 0.00
20260507072025 0 293 7.0 13.0 0.00 0.00 0.00
20260507071521 0 293 7.0 11.0 0.00 0.00 0.00
20260507071021 0 293 6.0 11.0 0.00 0.00 0.00
20260507070542 0 293 8.0 15.0 0.00 0.00 0.00
20260507070021 0 293 9.0 15.0 0.00 0.00 0.00
20260507065521 0 293 7.0 12.0 0.00 0.00 0.00
20260507065021 0 315 7.0 12.0 0.00 0.00 0.00
20260507064521 0 315 7.0 11.0 0.00 0.00 0.00
20260507064022 0 315 5.0 9.0 0.00 0.00 0.00
20260507063521 0 315 4.0 9.0 0.00 0.00 0.00
20260507063020 0 293 5.0 10.0 0.00 0.00 0.00
20260507062522 0 315 7.0 11.0 0.00 0.00 0.00
20260507062021 0 315 9.0 15.0 0.00 0.00 0.00
20260507061531 0 315 8.0 13.0 0.00 0.00 0.00
20260507061021 0 315 7.0 13.0 0.00 0.00 0.00
20260507060535 0 315 9.0 13.0 0.00 0.00 0.00
20260507060023 0 315 10.0 16.0 0.00 0.00 0.00
20260507055521 0 315 11.0 15.0 0.00 0.00 0.00
20260507055021 0 315 11.0 16.0 0.00 0.00 0.00
20260507054521 0 315 10.0 17.0 0.00 0.00 0.00
20260507054021 0 315 11.0 16.0 0.00 0.00 0.00
20260507053520 0 315 13.0 20.0 0.00 0.00 0.00
20260507053024 0 315 13.0 20.0 0.00 0.00 0.00
20260507052619 0 315 12.0 17.0 0.00 0.00 0.00
20260507052025 0 315 10.0 15.0 0.00 0.00 0.00
20260507051521 0 315 6.0 14.0 0.00 0.00 0.00
20260507051021 0 270 5.0 8.0 0.00 0.00 0.00
20260507050521 0 248 8.0 10.0 0.00 0.00 0.00
20260507050044 0 248 8.0 10.0 0.00 0.00 0.00
20260507045520 0 270 8.0 12.0 0.00 0.00 0.00
20260507045043 0 270 11.0 15.0 0.00 0.00 0.00
20260507044520 0 270 10.0 13.0 0.00 0.00 0.00
20260507044059 0 248 10.0 14.0 0.00 0.00 0.00
20260507043024 0 225 10.0 13.0 0.00 0.00 0.00
20260507042520 0 248 10.0 15.0 0.00 0.00 0.00
20260507042021 0 225 12.0 16.0 0.00 0.00 0.00
20260507041545 0 225 11.0 16.0 0.00 0.00 0.00
20260507041021 0 225 8.0 16.0 0.00 0.00 0.00
20260507040539 0 225 9.0 14.0 0.00 0.00 0.00
20260507040028 0 225 9.0 15.0 0.00 0.00 0.00
20260507035542 0 248 11.0 15.0 0.00 0.00 0.00
20260507035021 0 248 11.0 15.0 0.00 0.00 0.00
20260507034021 0 248 12.0 15.0 0.00 0.00 0.00
20260507033521 0 248 12.0 15.0 0.00 0.00 0.00
20260507033042 0 225 13.0 16.0 0.00 0.00 0.00
20260507032022 0 225 13.0 16.0 0.00 0.00 0.00
20260507031526 0 225 13.0 17.0 0.00 0.00 0.00
20260507031021 0 225 13.0 18.0 0.00 0.00 0.00
20260507030541 0 225 14.0 18.0 0.00 0.00 0.00
20260507030025 0 225 14.0 18.0 0.00 0.00 0.00
20260507024521 0 248 13.0 19.0 0.00 0.00 0.00
20260507024024 0 225 13.0 17.0 0.00 0.00 0.00
20260507023524 0 225 12.0 17.0 0.00 0.00 0.00
20260507023021 0 225 10.0 16.0 0.00 0.00 0.00
20260507022541 0 225 9.0 15.0 0.00 0.00 0.00
20260507022021 0 225 12.0 16.0 0.00 0.00 0.00
20260507021522 0 225 12.0 17.0 0.00 0.00 0.00
20260507021022 0 225 10.0 15.0 0.00 0.00 0.00
20260507015525 0 225 11.0 16.0 0.00 0.00 0.00
20260507015023 0 225 10.0 15.0 0.00 0.00 0.00
20260507014521 0 225 10.0 16.0 0.00 0.00 0.00
20260507014021 0 225 10.0 15.0 0.00 0.00 0.00
20260507013606 0 225 9.0 15.0 0.00 0.00 0.00
20260507013021 0 225 10.0 16.0 0.00 0.00 0.00
20260507012523 0 225 10.0 16.0 0.00 0.00 0.00
20260507012021 0 225 12.0 18.0 0.00 0.00 0.00
20260507011521 0 225 13.0 18.0 0.00 0.00 0.00
20260507011059 0 225 12.0 18.0 0.00 0.00 0.00
20260507010521 0 225 13.0 18.0 0.00 0.00 0.00
20260507010022 0 225 14.0 19.0 0.00 0.00 0.00
20260507003521 0 203 18.0 22.0 0.00 0.00 0.00
20260507003023 0 203 18.0 21.0 0.00 0.00 0.00
20260507002521 0 203 18.0 22.0 0.00 0.00 0.00
20260507002021 0 203 18.0 21.0 0.00 0.00 0.00
20260507001521 0 203 19.0 22.0 0.00 0.00 0.00
20260507001021 0 203 19.0 22.0 0.00 0.00 0.00
20260507000523 0 203 20.0 25.0 0.00 0.00 0.00
20260507000023 0 203 20.0 23.0 0.00 0.00 0.00
20260506235521 0 203 21.0 27.0 0.00 0.00 0.00
20260506235021 0 203 19.0 22.0 0.00 0.00 0.00
20260506234559 0 203 19.0 23.0 0.00 0.00 0.00
20260506234021 0 203 19.0 22.0 0.00 0.00 0.00
20260506233544 0 203 18.0 21.0 0.00 0.00 0.00
20260506233021 0 203 19.0 22.0 0.00 0.00 0.00
20260506232521 0 203 21.0 25.0 0.00 0.00 0.00
20260506232021 0 203 21.0 24.0 0.00 0.00 0.00
20260506231602 0 203 22.0 26.0 0.00 0.00 0.00
20260506231100 0 203 23.0 30.0 0.00 0.00 0.00
20260506230542 0 203 22.0 27.0 0.00 0.00 0.00
20260506230022 0 203 21.0 23.0 0.00 0.00 0.00
20260506225521 0 203 21.0 25.0 0.00 0.00 0.00
20260506225021 0 203 21.0 24.0 0.00 0.00 0.00
20260506224521 0 203 21.0 25.0 0.00 0.00 0.00
20260506224023 53 203 20.0 24.0 0.00 0.00 0.00 93
20260506223522 53 203 20.0 24.0 0.00 0.00 0.00 93
20260506223020 53 203 19.0 21.0 0.00 0.00 0.00 93
20260506222521 53 203 19.0 23.0 0.00 0.00 0.00 93
20260506222021 54 203 20.0 23.0 0.00 0.00 0.00 92
20260506221521 54 203 20.0 23.0 0.00 0.00 0.00 92
20260506221041 54 203 20.0 25.0 0.00 0.00 0.00 92
20260506220540 54 203 21.0 25.0 0.00 0.00 0.00 92
20260506220043 54 203 20.0 24.0 0.00 0.00 0.00 92
20260506215559 54 203 20.0 24.0 0.00 0.00 0.00 92
20260506214557 54 203 21.0 25.0 0.00 0.00 0.00 92
20260506214040 54 203 22.0 26.0 0.00 0.00 0.00 91
20260506213521 54 203 22.0 27.0 0.00 0.00 0.00 91
20260506213021 54 203 22.0 26.0 0.00 0.00 0.00 91
20260506212520 54 203 23.0 29.0 0.00 0.00 0.00 91
20260506212023 55 203 23.0 28.0 0.00 0.00 0.00 91
20260506211542 54 203 22.0 29.0 0.00 0.00 0.00 90
20260506211021 55 203 22.0 26.0 0.00 0.00 0.00 90
20260506210542 55 203 21.0 26.0 0.00 0.00 0.00 89
20260506210021 55 203 21.0 25.0 0.00 0.00 0.00 89
20260506205524 55 203 21.0 26.0 0.00 0.00 0.00 89
20260506205024 55 203 21.0 25.0 0.00 0.00 0.00 89
20260506204524 55 203 22.0 25.0 0.00 0.00 0.00 89
20260506204025 55 203 23.0 28.0 0.00 0.00 0.00 89
20260506203525 55 203 23.0 27.0 0.00 0.00 0.00 89
20260506203021 55 203 24.0 28.0 0.00 0.00 0.00 88
20260506202521 55 203 24.0 27.0 0.00 0.00 0.00 88
20260506202045 55 203 23.0 27.0 0.00 0.00 0.00 88
20260506201520 55 203 23.0 27.0 0.00 0.00 0.00 87
20260506201020 55 203 24.0 32.0 0.00 0.00 0.00 87
20260506200550 55 203 25.0 29.0 0.00 0.00 0.00 87
20260506200023 55 203 25.0 32.0 0.00 0.00 0.00 86
20260506195520 56 203 25.0 29.0 0.00 0.00 0.00 86
20260506195023 56 203 25.0 31.0 0.00 0.00 0.00 86
20260506194524 56 203 26.0 31.0 0.00 0.00 0.00 86
20260506194021 56 203 25.0 30.0 0.00 0.00 0.00 86
20260506193520 56 203 25.0 30.0 0.00 0.00 0.00 85
20260506193020 56 203 24.0 27.0 0.00 0.00 0.00 85
20260506192520 56 203 25.0 29.0 0.00 0.00 0.00 85
20260506192020 56 203 25.0 29.0 0.00 0.00 0.00 85
20260506191523 56 203 24.0 28.0 0.00 0.00 0.00 85
20260506185521 57 203 24.0 32.0 0.00 0.00 0.00 85
20260506185021 57 203 26.0 30.0 0.00 0.00 0.00 84
20260506184521 57 203 27.0 32.0 0.00 0.00 0.00 85
20260506182020 55 203 22.0 25.0 0.00 0.00 0.00 86
20260506181523 55 203 23.0 26.0 0.00 0.00 0.00 86
20260506180523 55 203 24.0 27.0 0.00 0.00 0.00 87
20260506180044 55 203 22.0 26.0 0.00 0.00 0.00 86
20260506175520 55 203 22.0 27.0 0.00 0.00 0.00 86
20260506175047 55 203 22.0 26.0 0.00 0.00 0.00 86
20260506174520 56 203 22.0 25.0 0.00 0.00 0.00 85
20260506174020 56 203 24.0 28.0 0.00 0.00 0.00 86
20260506173522 56 203 24.0 27.0 0.00 0.00 0.00 86
20260506173021 56 203 24.0 28.0 0.00 0.00 0.00 86
20260506172522 56 203 24.0 28.0 0.00 0.00 0.00 86
20260506172026 55 203 23.0 28.0 0.00 0.00 0.00 86
20260506171522 55 203 24.0 28.0 0.00 0.00 0.00 86
20260506171022 55 203 25.0 29.0 0.00 0.00 0.00 86
20260506170542 55 203 24.0 30.0 0.00 0.00 0.00 86
20260506170022 55 203 23.0 26.0 0.00 0.00 0.00 85
20260506165523 56 203 23.0 26.0 0.00 0.00 0.00 85
20260506165042 56 203 23.0 28.0 0.00 0.00 0.00 86
20260506164523 56 203 23.0 28.0 0.00 0.00 0.00 86
20260506164023 56 203 23.0 26.0 0.00 0.00 0.00 86
20260506163542 56 203 22.0 27.0 0.00 0.00 0.00 87
20260506163023 55 203 23.0 29.0 0.00 0.00 0.00 88
20260506162522 55 203 22.0 26.0 0.00 0.00 0.00 89
20260506162022 54 203 18.0 23.0 0.00 0.00 0.00 89
20260506161521 53 203 16.0 18.0 0.00 0.00 0.00 88
20260506161022 53 203 18.0 20.0 0.00 0.00 0.00 88
20260506160539 54 203 19.0 23.0 0.00 0.00 0.00 88
20260506160025 54 203 19.0 24.0 0.00 0.00 0.00 88
20260506155522 54 203 19.0 22.0 0.00 0.00 0.00 88
20260506155026 54 203 20.0 24.0 0.00 0.00 0.00 89
20260506154521 53 203 19.0 22.0 0.00 0.00 0.00 89
20260506154022 53 203 18.0 21.0 0.00 0.00 0.00 89
20260506153521 53 203 17.0 20.0 0.00 0.00 0.00 89
20260506153042 53 203 17.0 19.0 0.00 0.00 0.00 89
20260506152521 53 203 16.0 19.0 0.00 0.00 0.00 90
20260506151522 53 203 17.0 20.0 0.00 0.00 0.00 89
20260506151042 53 203 15.0 18.0 0.00 0.00 0.00 90
20260506150521 53 203 15.0 18.0 0.00 0.00 0.00 90
20260506150042 53 203 15.0 18.0 0.00 0.00 0.00 90
20260506145542 53 203 14.0 17.0 0.00 0.00 0.00 90
20260506145022 53 203 14.0 16.0 0.00 0.00 0.00 90
20260506144522 53 203 14.0 16.0 0.00 0.00 0.00 90
20260506144021 53 203 14.0 18.0 0.00 0.00 0.00 90
20260506143558 0 203 14.0 17.0 0.00 0.00 0.00
20260506143021 0 203 14.0 16.0 0.00 0.00 0.00
20260506142522 0 203 12.0 15.0 0.00 0.00 0.00
20260506142021 0 203 10.0 13.0 0.00 0.00 0.00
20260506141542 0 203 10.0 11.0 0.00 0.00 0.00
20260506141022 0 203 10.0 11.0 0.00 0.00 0.00
20260506140525 0 203 11.0 13.0 0.00 0.00 0.00
20260506140022 0 203 11.0 14.0 0.00 0.00 0.00
20260506135525 0 203 12.0 13.0 0.00 0.00 0.00
20260506135021 0 203 12.0 14.0 0.00 0.00 0.00
20260506134544 0 203 13.0 15.0 0.00 0.00 0.00
20260506134021 0 203 14.0 17.0 0.00 0.00 0.00
20260506133522 0 203 15.0 17.0 0.00 0.00 0.00
20260506133021 0 203 16.0 19.0 0.00 0.00 0.00
20260506132521 0 203 18.0 23.0 0.00 0.00 0.00
20260506132021 0 203 17.0 21.0 0.00 0.00 0.00
20260506131521 0 225 16.0 20.0 0.00 0.00 0.00
20260506131022 0 203 17.0 21.0 0.00 0.00 0.00
20260506130521 0 203 17.0 21.0 0.00 0.00 0.00
20260506124022 0 203 17.0 20.0 0.00 0.00 0.00
20260506123523 0 203 18.0 21.0 0.00 0.00 0.00
20260506123021 0 203 19.0 23.0 0.00 0.00 0.00
20260506122542 0 203 18.0 24.0 0.00 0.00 0.00
20260506122021 0 203 17.0 21.0 0.00 0.00 0.00
20260506121542 0 203 18.0 24.0 0.00 0.00 0.00
20260506121021 0 203 20.0 23.0 0.00 0.00 0.00
20260506114021 0 203 17.0 23.0 0.00 0.00 0.00
20260506113601 0 203 19.0 23.0 0.00 0.00 0.00
20260506113025 0 203 19.0 23.0 0.00 0.00 0.00
20260506112527 0 203 18.0 22.0 0.00 0.00 0.00
20260506112021 0 203 18.0 23.0 0.00 0.00 0.00
20260506111521 0 203 19.0 24.0 0.00 0.00 0.00
20260506111022 0 203 19.0 22.0 0.00 0.00 0.00
20260506105025 0 225 18.0 24.0 0.00 0.00 0.00
20260506104521 0 225 18.0 24.0 0.00 0.00 0.00
20260506104021 0 225 18.0 23.0 0.00 0.00 0.00
20260506103541 0 225 18.0 23.0 0.00 0.00 0.00
20260506103022 0 225 16.0 22.0 0.00 0.00 0.00
20260506102525 0 225 16.0 21.0 0.00 0.00 0.00
20260506102042 0 225 16.0 20.0 0.00 0.00 0.00